Tracking 31027 objects as of 19-Jul-2025
HD Live streaming from Space Station
objects crossing your sky now

STARLINK-30813

Track STARLINK-30813 now!
10-day predictions
STARLINK-30813 is classified as:


NORAD ID: 58213
Int'l Code: 2023-170H
Perigee: 565.1 km
Apogee: 567.3 km
Inclination: 43.0 °
Period: 95.8 minutes
Semi major axis: 6937 km
RCS: Unknown
Launch date: November 3, 2023
Source: United States (US)
Launch site: AIR FORCE EASTERN TEST RANGE (AFETR)
Your satellite tracking list
TITAN 3C TRANSTAGE DEB
Track 1 satellite(s)




NASA's NSSDC Master Catalog

Two Line Element Set (TLE):
1 58213U 23170H   25199.84758976  .00000928  00000-0  83760-4 0  9999
2 58213  43.0048  26.5453 0001564 234.8917 125.1779 15.02534251 95009
Source of the keplerian elements: AFSPC